Language: 


Des rapports , des résumés tant et plus, au choix de chacun....


Données statistiques de la station
Quotidien Rapport Janvier 9, 2018 Unités:  Anglais    Métrique   les deux
« Précédent Jour
Suivant Jour »
Quotidien Hebdomadaire Mensuel Annuel Actuel
  Haut: Bas: Moyen:
Température: TemperatureC °F 0.5 °F 3.2 °F
Pt de rosée: DewpointC °F 1.0 °F 3.4 °F
Humidité: Humidity % 98 % 98 %
Vitesse du vent: WindSpeedKMH mph 0.0 mph 3.1 mph
Rafales: WindSpeedGustKMH mph - -
Vent:- - SSE
Pression: PressurehPa in 1006.0 in -
Précipitation: 0.0 in    
Historical Graphs
 
 
Données statistiques pour Janvier 9, 2018
Heure Température Point de rosée Pression Vent Vitesse du vent Refales Humidité Pluie (taux horaire)
TemperatureC °F DewpointC °F PressurehPa in Calm     Humidity % HourlyPrecipMM in
00:00 1.8 °F 2.0 °F 1014.1 in Calm   6.9 mph 98 % 0.0 in
00:01 1.8 °F 2.0 °F 1014.1 in Calm   6.9 mph 98 % 0.0 in
00:03 1.8 °F 2.0 °F 1014.1 in NE 4.0 mph 6.4 mph 98 % 0.0 in
00:04 1.7 °F 2.0 °F 1014.1 in NE 6.1 mph 6.1 mph 98 % 0.0 in
00:06 1.8 °F 2.0 °F 1014.1 in ENE 6.1 mph 6.4 mph 98 % 0.0 in
00:08 1.8 °F 2.0 °F 1014.1 in ENE 5.5 mph 6.4 mph 98 % 0.0 in
00:09 1.8 °F 2.0 °F 1014.1 in NE 6.4 mph 6.4 mph 98 % 0.0 in
00:10 1.8 °F 2.0 °F 1014.1 in NE 3.2 mph 6.4 mph 98 % 0.0 in
00:11 1.8 °F 2.0 °F 1014.1 in Calm   6.4 mph 98 % 0.0 in
00:13 1.8 °F 2.0 °F 1014.1 in ENE 5.5 mph 6.4 mph 98 % 0.0 in
00:14 1.8 °F 2.0 °F 1014.1 in ENE 5.0 mph 6.9 mph 98 % 0.0 in
00:16 1.8 °F 2.0 °F 1014.1 in Calm   6.9 mph 98 % 0.0 in
00:17 1.8 °F 2.0 °F 1014.1 in Calm   6.9 mph 98 % 0.0 in
00:18 1.8 °F 2.0 °F 1014.1 in Calm   6.9 mph 98 % 0.0 in
00:21 1.7 °F 2.0 °F 1014.1 in ENE 4.0 mph 6.9 mph 98 % 0.0 in
00:22 1.8 °F 2.0 °F 1014.1 in ENE 5.8 mph 6.9 mph 98 % 0.0 in
00:26 1.8 °F 2.0 °F 1014.1 in Calm   6.1 mph 98 % 0.0 in
00:28 1.8 °F 2.0 °F 1014.1 in Calm   6.1 mph 98 % 0.0 in
00:33 1.7 °F 2.0 °F 1014.1 in ENE 4.0 mph 6.1 mph 98 % 0.0 in
00:38 1.7 °F 2.0 °F 1014.1 in Calm   6.1 mph 98 % 0.0 in
00:40 1.7 °F 2.0 °F 1014.1 in NE 5.5 mph 6.1 mph 98 % 0.0 in
00:43 1.7 °F 2.0 °F 1013.1 in Calm   5.8 mph 98 % 0.0 in
00:47 1.7 °F 2.0 °F 1013.1 in ENE 6.1 mph 7.9 mph 98 % 0.0 in
00:48 1.8 °F 2.0 °F 1013.1 in NE 6.9 mph 7.9 mph 98 % 0.0 in
00:53 1.8 °F 2.0 °F 1013.1 in NE 6.1 mph 8.7 mph 98 % 0.0 in
00:56 1.8 °F 2.0 °F 1012.1 in Calm   8.7 mph 98 % 0.0 in
00:57 1.8 °F 2.0 °F 1012.1 in Calm   8.7 mph 98 % 0.0 in
00:59 1.9 °F 2.0 °F 1012.1 in Calm   7.9 mph 98 % 0.0 in
01:00 1.9 °F 2.0 °F 1012.1 in NE 6.9 mph 7.9 mph 98 % 0.0 in
01:04 1.9 °F 2.0 °F 1012.1 in NE 9.0 mph 9.0 mph 98 % 0.0 in
01:05 1.9 °F 2.0 °F 1012.1 in NE 7.9 mph 9.0 mph 98 % 0.0 in
01:06 1.9 °F 2.0 °F 1012.1 in NE 5.8 mph 9.0 mph 98 % 0.0 in
01:09 1.9 °F 2.0 °F 1012.1 in NE 5.8 mph 9.0 mph 98 % 0.0 in
01:12 1.8 °F 2.0 °F 1013.1 in ENE 4.7 mph 9.0 mph 98 % 0.0 in
01:13 1.8 °F 2.0 °F 1013.1 in NE 6.1 mph 9.0 mph 98 % 0.0 in
01:14 1.8 °F 2.0 °F 1013.1 in NE 7.2 mph 7.9 mph 98 % 0.0 in
01:15 1.8 °F 2.0 °F 1013.1 in NE 8.7 mph 9.0 mph 98 % 0.0 in
01:16 1.8 °F 2.0 °F 1013.1 in NE 6.9 mph 9.0 mph 98 % 0.0 in
01:19 1.8 °F 2.0 °F 1013.1 in NE 5.0 mph 9.0 mph 98 % 0.0 in
01:21 1.8 °F 2.0 °F 1013.1 in Calm   9.0 mph 98 % 0.0 in
01:22 1.8 °F 2.0 °F 1013.1 in Calm   9.0 mph 98 % 0.0 in
01:23 1.8 °F 2.0 °F 1013.1 in Calm   9.0 mph 98 % 0.0 in
01:28 1.7 °F 2.0 °F 1013.1 in Calm   6.9 mph 98 % 0.0 in
01:29 1.7 °F 2.0 °F 1013.1 in Calm   6.9 mph 98 % 0.0 in
01:31 1.7 °F 2.0 °F 1013.1 in NE 4.7 mph 6.9 mph 98 % 0.0 in
01:33 1.7 °F 2.0 °F 1013.1 in Calm   6.9 mph 98 % 0.0 in
01:35 1.7 °F 2.0 °F 1013.1 in Calm   6.9 mph 98 % 0.0 in
01:38 1.7 °F 2.0 °F 1013.1 in Calm   6.9 mph 98 % 0.0 in
01:39 1.6 °F 2.0 °F 1013.1 in Calm   6.4 mph 98 % 0.0 in
01:42 1.6 °F 2.0 °F 1013.1 in Calm   4.7 mph 98 % 0.0 in
01:47 1.5 °F 2.0 °F 1013.1 in NE 5.5 mph 5.5 mph 98 % 0.0 in
01:51 1.5 °F 2.0 °F 1013.1 in Calm   5.5 mph 98 % 0.0 in
01:56 1.4 °F 1.0 °F 1013.1 in Calm   5.5 mph 98 % 0.0 in
01:57 1.4 °F 1.0 °F 1012.1 in Calm   5.5 mph 98 % 0.0 in
01:59 1.4 °F 1.0 °F 1012.1 in Calm   3.2 mph 98 % 0.0 in
02:00 1.4 °F 1.0 °F 1012.1 in Calm   3.2 mph 98 % 0.0 in
02:01 1.4 °F 1.0 °F 1012.1 in Calm   1.4 mph 98 % 0.0 in
02:03 1.4 °F 1.0 °F 1012.1 in Calm   1.4 mph 98 % 0.0 in
02:06 1.4 °F 1.0 °F 1012.1 in NNE 5.0 mph 5.5 mph 98 % 0.0 in
02:07 1.4 °F 1.0 °F 1012.1 in NNE 1.8 mph 5.5 mph 98 % 0.0 in
02:08 1.4 °F 1.0 °F 1012.1 in NNE 3.5 mph 5.5 mph 98 % 0.0 in
02:09 1.5 °F 2.0 °F 1012.1 in North 4.3 mph 5.8 mph 98 % 0.0 in
02:12 1.5 °F 2.0 °F 1012.1 in NE 5.8 mph 6.1 mph 98 % 0.0 in
02:13 1.5 °F 2.0 °F 1012.1 in North 7.6 mph 9.3 mph 98 % 0.0 in
02:14 1.4 °F 1.0 °F 1012.1 in NNE 7.9 mph 9.3 mph 98 % 0.0 in
02:16 1.4 °F 1.0 °F 1012.1 in NNE 5.0 mph 9.3 mph 98 % 0.0 in
02:17 1.4 °F 1.0 °F 1012.1 in NNE 5.0 mph 9.3 mph 98 % 0.0 in
02:18 1.4 °F 1.0 °F 1012.1 in NNW 6.9 mph 9.3 mph 98 % 0.0 in
02:20 1.4 °F 1.0 °F 1012.1 in NNE 5.5 mph 9.3 mph 98 % 0.0 in
02:21 1.4 °F 1.0 °F 1012.1 in North 6.4 mph 9.3 mph 98 % 0.0 in
02:22 1.4 °F 1.0 °F 1012.1 in North 6.4 mph 9.3 mph 98 % 0.0 in
02:23 1.4 °F 1.0 °F 1012.1 in NNE 4.7 mph 8.7 mph 98 % 0.0 in
02:25 1.4 °F 1.0 °F 1012.1 in NNE 4.7 mph 7.6 mph 98 % 0.0 in
02:26 1.4 °F 1.0 °F 1011.1 in NNE 5.5 mph 7.6 mph 98 % 0.0 in
02:30 1.4 °F 1.0 °F 1011.1 in NNE 6.4 mph 9.7 mph 98 % 0.0 in
02:31 1.4 °F 1.0 °F 1011.1 in NE 1.8 mph 9.7 mph 98 % 0.0 in
02:32 1.4 °F 1.0 °F 1011.1 in North 4.3 mph 9.7 mph 98 % 0.0 in
02:33 1.4 °F 1.0 °F 1011.1 in NNE 4.0 mph 9.7 mph 98 % 0.0 in
02:38 1.4 °F 1.0 °F 1011.1 in NNE 5.8 mph 9.7 mph 98 % 0.0 in
02:39 1.4 °F 1.0 °F 1011.1 in NNE 6.4 mph 10.1 mph 98 % 0.0 in
02:43 1.4 °F 1.0 °F 1012.1 in NE 4.3 mph 10.1 mph 98 % 0.0 in
02:44 1.4 °F 1.0 °F 1012.1 in Calm   10.1 mph 98 % 0.0 in
02:48 1.4 °F 1.0 °F 1012.1 in NNE 5.8 mph 10.1 mph 98 % 0.0 in
02:49 1.4 °F 1.0 °F 1012.1 in NNE 6.1 mph 7.9 mph 98 % 0.0 in
02:51 1.3 °F 1.0 °F 1012.1 in NE 2.6 mph 7.9 mph 98 % 0.0 in
02:54 1.3 °F 1.0 °F 1012.1 in NNE 5.8 mph 7.9 mph 98 % 0.0 in
02:55 1.3 °F 1.0 °F 1012.1 in NE 2.6 mph 7.9 mph 98 % 0.0 in
02:58 1.3 °F 1.0 °F 1012.1 in Calm   6.4 mph 98 % 0.0 in
03:04 1.2 °F 1.0 °F 1012.1 in NNE 6.4 mph 6.9 mph 98 % 0.0 in
03:08 1.1 °F 1.0 °F 1012.1 in NE 6.9 mph 6.9 mph 98 % 0.0 in
03:09 1.1 °F 1.0 °F 1012.1 in NE 5.8 mph 6.9 mph 98 % 0.0 in
03:11 1.1 °F 1.0 °F 1012.1 in NNE 5.8 mph 8.7 mph 98 % 0.0 in
03:12 1.2 °F 1.0 °F 1012.1 in Calm   8.7 mph 98 % 0.0 in
03:13 1.2 °F 1.0 °F 1012.1 in Calm   8.7 mph 98 % 0.0 in
03:16 1.1 °F 1.0 °F 1012.1 in Calm   8.7 mph 98 % 0.0 in
03:18 1.1 °F 1.0 °F 1012.1 in Calm   8.7 mph 98 % 0.0 in
03:21 1.1 °F 1.0 °F 1012.1 in Calm   2.1 mph 98 % 0.0 in
03:23 1.0 °F 1.0 °F 1012.1 in Calm     98 % 0.0 in
03:24 1.0 °F 1.0 °F 1012.1 in NNE 1.4 mph 5.0 mph 98 % 0.0 in
03:26 1.0 °F 1.0 °F 1011.1 in NNE 3.2 mph 5.0 mph 98 % 0.0 in
03:28 1.0 °F 1.0 °F 1011.1 in NE 2.1 mph 5.8 mph 98 % 0.0 in
03:29 1.0 °F 1.0 °F 1011.1 in Calm   5.8 mph 98 % 0.0 in
03:30 1.0 °F 1.0 °F 1011.1 in Calm   5.8 mph 98 % 0.0 in
03:31 1.0 °F 1.0 °F 1011.1 in Calm   5.8 mph 98 % 0.0 in
03:33 1.1 °F 1.0 °F 1011.1 in Calm   5.8 mph 98 % 0.0 in
03:34 1.1 °F 1.0 °F 1011.1 in North 4.3 mph 5.8 mph 98 % 0.0 in
03:36 1.1 °F 1.0 °F 1011.1 in Calm   5.8 mph 98 % 0.0 in
03:37 1.1 °F 1.0 °F 1011.1 in NNE 5.8 mph 5.8 mph 98 % 0.0 in
03:38 1.1 °F 1.0 °F 1011.1 in NNE 6.1 mph 6.9 mph 98 % 0.0 in
03:40 1.1 °F 1.0 °F 1011.1 in NNE 6.4 mph 6.9 mph 98 % 0.0 in
03:41 1.1 °F 1.0 °F 1011.1 in NNE 4.0 mph 6.9 mph 98 % 0.0 in
03:42 1.1 °F 1.0 °F 1011.1 in NNE 5.8 mph 6.9 mph 98 % 0.0 in
03:44 1.1 °F 1.0 °F 1011.1 in NE 6.1 mph 6.9 mph 98 % 0.0 in
03:48 1.1 °F 1.0 °F 1011.1 in Calm   6.4 mph 98 % 0.0 in
03:50 1.0 °F 1.0 °F 1011.1 in Calm   6.4 mph 98 % 0.0 in
03:54 1.0 °F 1.0 °F 1011.1 in Calm   6.1 mph 98 % 0.0 in
03:56 1.0 °F 1.0 °F 1011.1 in Calm   5.5 mph 98 % 0.0 in
03:59 1.0 °F 1.0 °F 1011.1 in Calm     98 % 0.0 in
04:00 1.0 °F 1.0 °F 1011.1 in Calm     98 % 0.0 in
04:02 1.0 °F 1.0 °F 1011.1 in NE 2.6 mph 2.6 mph 98 % 0.0 in
04:03 1.0 °F 1.0 °F 1011.1 in Calm   4.0 mph 98 % 0.0 in
04:04 1.0 °F 1.0 °F 1011.1 in Calm   4.0 mph 98 % 0.0 in
04:06 1.0 °F 1.0 °F 1011.1 in Calm   4.0 mph 98 % 0.0 in
04:08 1.0 °F 1.0 °F 1011.1 in Calm   4.0 mph 98 % 0.0 in
04:09 1.0 °F 1.0 °F 1011.1 in Calm   4.0 mph 98 % 0.0 in
04:13 1.0 °F 1.0 °F 1011.1 in Calm     98 % 0.0 in
04:14 1.0 °F 1.0 °F 1011.1 in Calm     98 % 0.0 in
04:18 1.1 °F 1.0 °F 1011.1 in Calm     98 % 0.0 in
04:19 1.1 °F 1.0 °F 1011.1 in Calm     98 % 0.0 in
04:20 1.1 °F 1.0 °F 1011.1 in Calm     98 % 0.0 in
04:21 1.1 °F 1.0 °F 1011.1 in Calm     98 % 0.0 in
04:22 1.1 °F 1.0 °F 1011.1 in Calm     98 % 0.0 in
04:23 1.1 °F 1.0 °F 1011.1 in Calm     98 % 0.0 in
04:24 1.1 °F 1.0 °F 1011.1 in Calm     98 % 0.0 in
04:25 1.1 °F 1.0 °F 1011.1 in Calm     98 % 0.0 in
04:26 1.1 °F 1.0 °F 1011.1 in Calm     98 % 0.0 in
04:29 1.1 °F 1.0 °F 1011.1 in Calm   3.5 mph 98 % 0.0 in
04:30 1.1 °F 1.0 °F 1011.1 in Calm   3.5 mph 98 % 0.0 in
04:33 1.1 °F 1.0 °F 1011.1 in Calm   3.5 mph 98 % 0.0 in
04:34 1.1 °F 1.0 °F 1011.1 in Calm   3.5 mph 98 % 0.0 in
04:35 1.1 °F 1.0 °F 1011.1 in Calm   3.5 mph 98 % 0.0 in
04:36 1.1 °F 1.0 °F 1011.1 in Calm   3.5 mph 98 % 0.0 in
04:37 1.0 °F 1.0 °F 1011.1 in Calm     98 % 0.0 in
04:38 1.0 °F 1.0 °F 1011.1 in Calm     98 % 0.0 in
04:41 1.0 °F 1.0 °F 1011.1 in Calm     98 % 0.0 in
04:42 1.0 °F 1.0 °F 1011.1 in NNE 3.2 mph 4.7 mph 98 % 0.0 in
04:44 1.0 °F 1.0 °F 1011.1 in Calm   5.0 mph 98 % 0.0 in
04:46 1.0 °F 1.0 °F 1011.1 in Calm   5.0 mph 98 % 0.0 in
04:48 1.0 °F 1.0 °F 1011.1 in Calm   5.0 mph 98 % 0.0 in
04:49 1.0 °F 1.0 °F 1011.1 in Calm   5.0 mph 98 % 0.0 in
04:50 1.0 °F 1.0 °F 1011.1 in Calm   5.0 mph 98 % 0.0 in
04:52 1.0 °F 1.0 °F 1011.1 in Calm   5.0 mph 98 % 0.0 in
04:55 1.0 °F 1.0 °F 1011.1 in Calm   4.3 mph 98 % 0.0 in
04:56 1.0 °F 1.0 °F 1011.1 in Calm   4.3 mph 98 % 0.0 in
04:59 1.0 °F 1.0 °F 1011.1 in Calm   4.3 mph 98 % 0.0 in
05:00 1.0 °F 1.0 °F 1011.1 in Calm   4.3 mph 98 % 0.0 in
05:02 1.1 °F 1.0 °F 1011.1 in Calm   3.5 mph 98 % 0.0 in
05:03 1.1 °F 1.0 °F 1011.1 in Calm   3.5 mph 98 % 0.0 in
05:08 1.0 °F 1.0 °F 1011.1 in Calm   4.3 mph 98 % 0.0 in
05:09 1.0 °F 1.0 °F 1011.1 in Calm   4.3 mph 98 % 0.0 in
05:11 1.0 °F 1.0 °F 1010.0 in Calm   4.3 mph 98 % 0.0 in
05:14 1.0 °F 1.0 °F 1010.0 in Calm   4.3 mph 98 % 0.0 in
05:16 1.0 °F 1.0 °F 1010.0 in Calm     98 % 0.0 in
05:17 1.0 °F 1.0 °F 1010.0 in Calm     98 % 0.0 in
05:20 1.0 °F 1.0 °F 1010.0 in Calm     98 % 0.0 in
05:23 0.9 °F 1.0 °F 1010.0 in Calm     98 % 0.0 in
05:24 0.9 °F 1.0 °F 1010.0 in Calm     98 % 0.0 in
05:25 0.9 °F 1.0 °F 1010.0 in Calm     98 % 0.0 in
05:26 0.9 °F 1.0 °F 1010.0 in Calm     98 % 0.0 in
05:28 0.9 °F 1.0 °F 1010.0 in Calm     98 % 0.0 in
05:29 0.9 °F 1.0 °F 1010.0 in Calm     98 % 0.0 in
05:32 0.8 °F 1.0 °F 1010.0 in Calm     98 % 0.0 in
05:34 0.8 °F 1.0 °F 1010.0 in Calm     98 % 0.0 in
05:36 0.8 °F 1.0 °F 1010.0 in Calm     98 % 0.0 in
05:37 0.8 °F 1.0 °F 1010.0 in Calm     98 % 0.0 in
05:39 0.8 °F 1.0 °F 1010.0 in Calm     98 % 0.0 in
05:40 0.8 °F 1.0 °F 1010.0 in Calm   4.0 mph 98 % 0.0 in
05:41 0.8 °F 1.0 °F 1009.0 in Calm   4.0 mph 98 % 0.0 in
05:42 0.8 °F 1.0 °F 1009.0 in Calm   4.0 mph 98 % 0.0 in
05:43 0.8 °F 1.0 °F 1009.0 in Calm   4.0 mph 98 % 0.0 in
05:45 0.8 °F 1.0 °F 1009.0 in Calm   4.0 mph 98 % 0.0 in
05:46 0.9 °F 1.0 °F 1009.0 in Calm   4.0 mph 98 % 0.0 in
05:47 0.9 °F 1.0 °F 1009.0 in Calm   4.0 mph 98 % 0.0 in
05:48 0.9 °F 1.0 °F 1009.0 in Calm   4.0 mph 98 % 0.0 in
05:49 0.9 °F 1.0 °F 1009.0 in NE 3.2 mph 4.0 mph 98 % 0.0 in
05:50 0.9 °F 1.0 °F 1009.0 in Calm   4.0 mph 98 % 0.0 in
05:51 0.9 °F 1.0 °F 1009.0 in Calm   3.2 mph 98 % 0.0 in
05:53 0.8 °F 1.0 °F 1009.0 in Calm   3.2 mph 98 % 0.0 in
05:55 0.8 °F 1.0 °F 1009.0 in Calm   3.2 mph 98 % 0.0 in
05:56 0.8 °F 1.0 °F 1009.0 in Calm   3.2 mph 98 % 0.0 in
05:59 0.7 °F 1.0 °F 1009.0 in Calm   3.2 mph 98 % 0.0 in
06:00 0.7 °F 1.0 °F 1009.0 in Calm   3.2 mph 98 % 0.0 in
06:01 0.7 °F 1.0 °F 1009.0 in Calm   3.2 mph 98 % 0.0 in
06:03 0.7 °F 1.0 °F 1009.0 in Calm   3.2 mph 98 % 0.0 in
06:05 0.7 °F 1.0 °F 1009.0 in Calm     98 % 0.0 in
06:06 0.7 °F 1.0 °F 1009.0 in Calm     98 % 0.0 in
06:07 0.7 °F 1.0 °F 1009.0 in Calm     98 % 0.0 in
06:10 0.6 °F 1.0 °F 1009.0 in Calm     98 % 0.0 in
06:11 0.6 °F 1.0 °F 1010.0 in Calm     98 % 0.0 in
06:12 0.6 °F 1.0 °F 1010.0 in Calm     98 % 0.0 in
06:14 0.6 °F 1.0 °F 1010.0 in Calm     98 % 0.0 in
06:15 0.6 °F 1.0 °F 1010.0 in Calm     98 % 0.0 in
06:16 0.6 °F 1.0 °F 1010.0 in Calm     98 % 0.0 in
06:17 0.6 °F 1.0 °F 1010.0 in Calm     98 % 0.0 in
06:19 0.6 °F 1.0 °F 1010.0 in Calm     98 % 0.0 in
06:20 0.6 °F 1.0 °F 1010.0 in Calm     98 % 0.0 in
06:21 0.6 °F 1.0 °F 1010.0 in Calm     98 % 0.0 in
06:22 0.6 °F 1.0 °F 1010.0 in Calm     98 % 0.0 in
06:23 0.6 °F 1.0 °F 1010.0 in Calm     98 % 0.0 in
06:24 0.6 °F 1.0 °F 1010.0 in NE 3.2 mph 3.2 mph 98 % 0.0 in
06:26 0.6 °F 1.0 °F 1010.0 in NNE 3.5 mph 3.5 mph 98 % 0.0 in
06:27 0.6 °F 1.0 °F 1009.0 in North 4.0 mph 4.0 mph 98 % 0.0 in
06:28 0.6 °F 1.0 °F 1009.0 in North 4.7 mph 4.7 mph 98 % 0.0 in
06:29 0.6 °F 1.0 °F 1009.0 in Calm   5.8 mph 98 % 0.0 in
06:30 0.6 °F 1.0 °F 1009.0 in North 3.5 mph 5.8 mph 98 % 0.0 in
06:31 0.6 °F 1.0 °F 1009.0 in Calm   5.8 mph 98 % 0.0 in
06:32 0.6 °F 1.0 °F 1009.0 in Calm   5.8 mph 98 % 0.0 in
06:33 0.6 °F 1.0 °F 1009.0 in Calm   5.8 mph 98 % 0.0 in
06:35 0.6 °F 1.0 °F 1009.0 in Calm   5.8 mph 98 % 0.0 in
06:36 0.6 °F 1.0 °F 1009.0 in Calm   5.8 mph 98 % 0.0 in
06:38 0.6 °F 1.0 °F 1009.0 in Calm   5.8 mph 98 % 0.0 in
06:39 0.6 °F 1.0 °F 1009.0 in NNE 3.5 mph 5.5 mph 98 % 0.0 in
06:40 0.7 °F 1.0 °F 1009.0 in Calm   4.0 mph 98 % 0.0 in
06:42 0.7 °F 1.0 °F 1010.0 in Calm   4.0 mph 98 % 0.0 in
06:43 0.7 °F 1.0 °F 1010.0 in NNE 4.0 mph 5.0 mph 98 % 0.0 in
06:44 0.7 °F 1.0 °F 1010.0 in NE 4.0 mph 5.0 mph 98 % 0.0 in
06:45 0.7 °F 1.0 °F 1010.0 in NNE 4.7 mph 5.0 mph 98 % 0.0 in
06:46 0.7 °F 1.0 °F 1010.0 in Calm   5.0 mph 98 % 0.0 in
06:47 0.7 °F 1.0 °F 1010.0 in Calm   5.0 mph 98 % 0.0 in
06:49 0.7 °F 1.0 °F 1010.0 in Calm   5.0 mph 98 % 0.0 in
06:50 0.7 °F 1.0 °F 1010.0 in Calm   5.0 mph 98 % 0.0 in
06:51 0.6 °F 1.0 °F 1010.0 in Calm   5.0 mph 98 % 0.0 in
06:53 0.6 °F 1.0 °F 1010.0 in Calm   4.7 mph 98 % 0.0 in
06:54 0.6 °F 1.0 °F 1010.0 in Calm   4.7 mph 98 % 0.0 in
06:57 0.6 °F 1.0 °F 1009.0 in NNE 2.1 mph 3.5 mph 98 % 0.0 in
06:58 0.6 °F 1.0 °F 1009.0 in Calm   3.5 mph 98 % 0.0 in
06:59 0.6 °F 1.0 °F 1009.0 in Calm   4.0 mph 98 % 0.0 in
07:00 0.6 °F 1.0 °F 1009.0 in NNE 4.7 mph 5.8 mph 98 % 0.0 in
07:01 0.6 °F 1.0 °F 1009.0 in Calm   5.8 mph 98 % 0.0 in
07:02 0.6 °F 1.0 °F 1009.0 in Calm   5.8 mph 98 % 0.0 in
07:04 0.5 °F 1.0 °F 1009.0 in Calm   5.8 mph 98 % 0.0 in
07:06 0.5 °F 1.0 °F 1009.0 in Calm   5.8 mph 98 % 0.0 in
07:07 0.5 °F 1.0 °F 1009.0 in Calm   5.8 mph 98 % 0.0 in
07:08 0.5 °F 1.0 °F 1009.0 in Calm   5.8 mph 98 % 0.0 in
07:10 0.5 °F 1.0 °F 1009.0 in NE 4.7 mph 5.8 mph 98 % 0.0 in
07:12 0.5 °F 1.0 °F 1009.0 in Calm   5.5 mph 98 % 0.0 in
07:13 0.5 °F 1.0 °F 1009.0 in Calm   5.5 mph 98 % 0.0 in
07:14 0.5 °F 1.0 °F 1009.0 in Calm   5.5 mph 98 % 0.0 in
07:18 0.6 °F 1.0 °F 1009.0 in Calm   5.5 mph 98 % 0.0 in
07:19 0.6 °F 1.0 °F 1009.0 in Calm   5.5 mph 98 % 0.0 in
07:20 0.6 °F 1.0 °F 1009.0 in Calm   5.0 mph 98 % 0.0 in
07:21 0.6 °F 1.0 °F 1009.0 in Calm   5.0 mph 98 % 0.0 in
07:22 0.7 °F 1.0 °F 1009.0 in Calm   4.7 mph 98 % 0.0 in
07:27 0.8 °F 1.0 °F 1009.0 in ENE 4.3 mph 4.3 mph 98 % 0.0 in
07:29 0.8 °F 1.0 °F 1009.0 in Calm   5.5 mph 98 % 0.0 in
07:30 0.9 °F 1.0 °F 1009.0 in Calm   5.5 mph 98 % 0.0 in
07:31 0.9 °F 1.0 °F 1009.0 in NE 1.4 mph 5.8 mph 98 % 0.0 in
07:32 0.9 °F 1.0 °F 1009.0 in Calm   5.8 mph 98 % 0.0 in
07:33 0.9 °F 1.0 °F 1009.0 in NE 6.1 mph 6.1 mph 98 % 0.0 in
07:34 0.9 °F 1.0 °F 1009.0 in ENE 6.4 mph 6.4 mph 98 % 0.0 in
07:35 0.9 °F 1.0 °F 1009.0 in NE 6.1 mph 6.4 mph 98 % 0.0 in
07:38 1.0 °F 1.0 °F 1009.0 in NE 5.8 mph 6.9 mph 98 % 0.0 in
07:40 1.0 °F 1.0 °F 1009.0 in NE 5.0 mph 6.9 mph 98 % 0.0 in
07:41 1.0 °F 1.0 °F 1009.0 in NE 5.8 mph 6.9 mph 98 % 0.0 in
07:42 1.0 °F 1.0 °F 1009.0 in ENE 5.8 mph 6.9 mph 98 % 0.0 in
07:43 1.0 °F 1.0 °F 1009.0 in ENE 5.8 mph 6.9 mph 98 % 0.0 in
07:44 1.0 °F 1.0 °F 1009.0 in NE 6.9 mph 6.9 mph 98 % 0.0 in
07:46 1.0 °F 1.0 °F 1009.0 in Calm   7.6 mph 98 % 0.0 in
07:47 1.0 °F 1.0 °F 1009.0 in Calm   7.6 mph 98 % 0.0 in
07:48 1.0 °F 1.0 °F 1009.0 in Calm   7.6 mph 98 % 0.0 in
07:50 1.0 °F 1.0 °F 1009.0 in Calm   7.6 mph 98 % 0.0 in
07:53 1.0 °F 1.0 °F 1009.0 in Calm   7.6 mph 98 % 0.0 in
07:54 1.0 °F 1.0 °F 1009.0 in Calm     98 % 0.0 in
07:56 1.0 °F 1.0 °F 1009.0 in Calm     98 % 0.0 in
07:58 1.0 °F 1.0 °F 1009.0 in Calm     98 % 0.0 in
07:59 1.0 °F 1.0 °F 1009.0 in NNE 5.5 mph 5.5 mph 98 % 0.0 in
08:00 0.9 °F 1.0 °F 1009.0 in NE 6.9 mph 6.9 mph 98 % 0.0 in
08:01 0.9 °F 1.0 °F 1009.0 in NE 6.9 mph 6.9 mph 98 % 0.0 in
08:04 0.9 °F 1.0 °F 1009.0 in NNE 6.4 mph 6.9 mph 98 % 0.0 in
08:05 0.9 °F 1.0 °F 1009.0 in Calm   6.9 mph 98 % 0.0 in
08:06 0.8 °F 1.0 °F 1009.0 in NNE 5.0 mph 6.9 mph 98 % 0.0 in
08:08 0.8 °F 1.0 °F 1009.0 in NNE 5.0 mph 6.9 mph 98 % 0.0 in
08:09 0.8 °F 1.0 °F 1009.0 in Calm   6.9 mph 98 % 0.0 in
08:10 0.8 °F 1.0 °F 1009.0 in Calm   6.9 mph 98 % 0.0 in
08:12 0.8 °F 1.0 °F 1009.0 in NNE 3.2 mph 6.4 mph 98 % 0.0 in
08:13 0.8 °F 1.0 °F 1009.0 in Calm   6.4 mph 98 % 0.0 in
08:15 0.8 °F 1.0 °F 1009.0 in Calm   5.8 mph 98 % 0.0 in
08:16 0.8 °F 1.0 °F 1009.0 in Calm   5.5 mph 98 % 0.0 in
08:17 0.8 °F 1.0 °F 1009.0 in North 4.3 mph 5.5 mph 98 % 0.0 in
08:18 0.8 °F 1.0 °F 1009.0 in NNE 5.0 mph 5.8 mph 98 % 0.0 in
08:19 0.8 °F 1.0 °F 1009.0 in NE 6.1 mph 6.1 mph 98 % 0.0 in
08:20 0.8 °F 1.0 °F 1009.0 in NNE 5.5 mph 6.1 mph 98 % 0.0 in
08:22 0.8 °F 1.0 °F 1009.0 in Calm   6.1 mph 98 % 0.0 in
08:25 0.8 °F 1.0 °F 1009.0 in Calm   6.1 mph 98 % 0.0 in
08:26 0.8 °F 1.0 °F 1009.0 in Calm   6.1 mph 98 % 0.0 in
08:27 0.8 °F 1.0 °F 1009.0 in Calm   6.1 mph 98 % 0.0 in
08:30 0.9 °F 1.0 °F 1009.0 in Calm   5.5 mph 98 % 0.0 in
08:31 0.9 °F 1.0 °F 1009.0 in Calm   5.0 mph 98 % 0.0 in
08:32 0.9 °F 1.0 °F 1009.0 in ENE 4.3 mph 5.0 mph 98 % 0.0 in
08:33 0.9 °F 1.0 °F 1009.0 in ENE 3.5 mph 5.0 mph 98 % 0.0 in
08:34 0.9 °F 1.0 °F 1009.0 in Calm   4.3 mph 98 % 0.0 in
08:37 0.9 °F 1.0 °F 1009.0 in Calm   4.3 mph 98 % 0.0 in
08:39 1.0 °F 1.0 °F 1009.0 in Calm   4.3 mph 98 % 0.0 in
08:42 1.0 °F 1.0 °F 1009.0 in Calm   3.5 mph 98 % 0.0 in
08:43 1.0 °F 1.0 °F 1009.0 in Calm     98 % 0.0 in
08:44 1.0 °F 1.0 °F 1009.0 in Calm     98 % 0.0 in
08:45 1.0 °F 1.0 °F 1009.0 in Calm     98 % 0.0 in
08:50 1.0 °F 1.0 °F 1009.0 in Calm     98 % 0.0 in
08:51 1.0 °F 1.0 °F 1009.0 in Calm     98 % 0.0 in
08:54 1.0 °F 1.0 °F 1009.0 in ENE 4.3 mph 4.3 mph 98 % 0.0 in
08:55 1.0 °F 1.0 °F 1009.0 in Calm   4.3 mph 98 % 0.0 in
08:56 1.0 °F 1.0 °F 1009.0 in ENE 4.0 mph 4.3 mph 98 % 0.0 in
08:57 1.0 °F 1.0 °F 1009.0 in Calm   4.3 mph 98 % 0.0 in
08:59 1.0 °F 1.0 °F 1009.0 in Calm   4.3 mph 98 % 0.0 in
09:00 1.0 °F 1.0 °F 1009.0 in ENE 3.5 mph 4.3 mph 98 % 0.0 in
09:01 1.0 °F 1.0 °F 1009.0 in Calm   4.3 mph 98 % 0.0 in
09:02 1.0 °F 1.0 °F 1009.0 in Calm   4.3 mph 98 % 0.0 in
09:03 1.0 °F 1.0 °F 1009.0 in Calm   4.3 mph 98 % 0.0 in
09:04 1.0 °F 1.0 °F 1009.0 in Calm   4.3 mph 98 % 0.0 in
09:06 1.0 °F 1.0 °F 1009.0 in Calm   4.0 mph 98 % 0.0 in
09:08 1.0 °F 1.0 °F 1009.0 in East 3.2 mph 3.5 mph 98 % 0.0 in
09:10 1.0 °F 1.0 °F 1009.0 in Calm   3.5 mph 98 % 0.0 in
09:12 1.1 °F 1.0 °F 1009.0 in Calm   3.2 mph 98 % 0.0 in
09:14 1.1 °F 1.0 °F 1009.0 in East 2.1 mph 3.2 mph 98 % 0.0 in
09:15 1.1 °F 1.0 °F 1009.0 in Calm   3.2 mph 98 % 0.0 in
09:16 1.1 °F 1.0 °F 1009.0 in Calm   3.2 mph 98 % 0.0 in
09:17 1.1 °F 1.0 °F 1009.0 in East 2.1 mph 3.5 mph 98 % 0.0 in
09:18 1.2 °F 1.0 °F 1009.0 in Calm   3.5 mph 98 % 0.0 in
09:23 1.3 °F 1.0 °F 1009.0 in Calm   3.5 mph 98 % 0.0 in
09:24 1.3 °F 1.0 °F 1009.0 in Calm   3.5 mph 98 % 0.0 in
09:26 1.3 °F 1.0 °F 1009.0 in Calm   3.5 mph 98 % 0.0 in
09:27 1.3 °F 1.0 °F 1008.0 in Calm   3.5 mph 98 % 0.0 in
09:30 1.3 °F 1.0 °F 1008.0 in Calm   3.2 mph 98 % 0.0 in
09:31 1.3 °F 1.0 °F 1008.0 in Calm   3.2 mph 98 % 0.0 in
09:32 1.3 °F 1.0 °F 1008.0 in Calm   3.2 mph 98 % 0.0 in
09:33 1.3 °F 1.0 °F 1008.0 in Calm   3.2 mph 98 % 0.0 in
09:34 1.3 °F 1.0 °F 1008.0 in Calm   3.2 mph 98 % 0.0 in
09:35 1.3 °F 1.0 °F 1008.0 in Calm   3.2 mph 98 % 0.0 in
09:36 1.3 °F 1.0 °F 1008.0 in Calm   3.2 mph 98 % 0.0 in
09:37 1.3 °F 1.0 °F 1008.0 in Calm   3.2 mph 98 % 0.0 in
09:38 1.3 °F 1.0 °F 1008.0 in Calm   3.2 mph 98 % 0.0 in
09:39 1.4 °F 1.0 °F 1008.0 in Calm     98 % 0.0 in
09:40 1.4 °F 1.0 °F 1008.0 in Calm     98 % 0.0 in
09:41 1.4 °F 1.0 °F 1009.0 in Calm     98 % 0.0 in
09:43 1.4 °F 1.0 °F 1009.0 in Calm   2.1 mph 98 % 0.0 in
09:44 1.4 °F 1.0 °F 1009.0 in Calm   2.1 mph 98 % 0.0 in
09:45 1.4 °F 1.0 °F 1009.0 in Calm   2.1 mph 98 % 0.0 in
09:46 1.4 °F 1.0 °F 1009.0 in Calm   2.1 mph 98 % 0.0 in
09:47 1.4 °F 1.0 °F 1009.0 in Calm   4.0 mph 98 % 0.0 in
09:48 1.5 °F 2.0 °F 1009.0 in Calm   4.0 mph 98 % 0.0 in
09:49 1.5 °F 2.0 °F 1009.0 in Calm   4.0 mph 98 % 0.0 in
09:51 1.5 °F 2.0 °F 1009.0 in Calm   4.0 mph 98 % 0.0 in
09:52 1.5 °F 2.0 °F 1009.0 in Calm   4.0 mph 98 % 0.0 in
09:53 1.5 °F 2.0 °F 1009.0 in Calm   4.0 mph 98 % 0.0 in
09:54 1.5 °F 2.0 °F 1009.0 in Calm   4.0 mph 98 % 0.0 in
09:56 1.6 °F 2.0 °F 1008.0 in Calm   4.0 mph 98 % 0.0 in
09:57 1.6 °F 2.0 °F 1008.0 in Calm     98 % 0.0 in
09:58 1.6 °F 2.0 °F 1008.0 in Calm     98 % 0.0 in
09:59 1.6 °F 2.0 °F 1008.0 in Calm     98 % 0.0 in
10:00 1.6 °F 2.0 °F 1008.0 in Calm     98 % 0.0 in
10:03 1.6 °F 2.0 °F 1008.0 in Calm     98 % 0.0 in
10:04 1.7 °F 2.0 °F 1008.0 in Calm     98 % 0.0 in
10:05 1.7 °F 2.0 °F 1008.0 in Calm     98 % 0.0 in
10:07 1.7 °F 2.0 °F 1008.0 in Calm     98 % 0.0 in
10:09 1.8 °F 2.0 °F 1008.0 in Calm     98 % 0.0 in
10:10 1.8 °F 2.0 °F 1008.0 in Calm     98 % 0.0 in
10:11 1.9 °F 2.0 °F 1008.0 in Calm     98 % 0.0 in
10:12 1.9 °F 2.0 °F 1008.0 in Calm     98 % 0.0 in
10:15 1.9 °F 2.0 °F 1008.0 in Calm     98 % 0.0 in
10:17 2.0 °F 2.0 °F 1008.0 in Calm     98 % 0.0 in
10:20 2.0 °F 2.0 °F 1008.0 in Calm     98 % 0.0 in
10:21 2.0 °F 2.0 °F 1008.0 in Calm     98 % 0.0 in
10:23 2.1 °F 2.0 °F 1008.0 in Calm     98 % 0.0 in
10:25 2.1 °F 2.0 °F 1008.0 in Calm     98 % 0.0 in
10:26 2.2 °F 2.0 °F 1008.0 in Calm     98 % 0.0 in
10:27 2.2 °F 2.0 °F 1008.0 in Calm     98 % 0.0 in
10:28 2.2 °F 2.0 °F 1008.0 in East 2.1 mph 2.1 mph 98 % 0.0 in
10:29 2.2 °F 2.0 °F 1008.0 in Calm   2.1 mph 98 % 0.0 in
10:33 2.4 °F 3.0 °F 1008.0 in Calm   2.6 mph 98 % 0.0 in
10:34 2.4 °F 3.0 °F 1008.0 in Calm   2.6 mph 98 % 0.0 in
10:36 2.4 °F 3.0 °F 1008.0 in NE 2.6 mph 2.6 mph 98 % 0.0 in
10:37 2.5 °F 3.0 °F 1008.0 in Calm   2.6 mph 98 % 0.0 in
10:38 2.5 °F 3.0 °F 1008.0 in Calm   2.6 mph 98 % 0.0 in
10:39 2.5 °F 3.0 °F 1008.0 in Calm   2.6 mph 98 % 0.0 in
10:40 2.6 °F 3.0 °F 1008.0 in Calm   2.6 mph 98 % 0.0 in
10:41 2.6 °F 3.0 °F 1008.0 in Calm   2.6 mph 98 % 0.0 in
10:42 2.6 °F 3.0 °F 1008.0 in Calm   2.6 mph 98 % 0.0 in
10:43 2.6 °F 3.0 °F 1008.0 in ESE 2.6 mph 3.5 mph 98 % 0.0 in
10:44 2.6 °F 3.0 °F 1008.0 in Calm   3.5 mph 98 % 0.0 in
10:45 2.7 °F 3.0 °F 1008.0 in ENE 2.1 mph 3.5 mph 98 % 0.0 in
10:46 2.7 °F 3.0 °F 1008.0 in Calm   3.5 mph 98 % 0.0 in
10:48 2.7 °F 3.0 °F 1008.0 in East 4.0 mph 4.3 mph 98 % 0.0 in
10:54 2.9 °F 3.0 °F 1008.0 in Calm   4.3 mph 98 % 0.0 in
10:56 2.9 °F 3.0 °F 1008.0 in Calm   4.0 mph 98 % 0.0 in
10:58 3.0 °F 3.0 °F 1008.0 in East 2.6 mph 4.0 mph 98 % 0.0 in
10:59 3.0 °F 3.0 °F 1008.0 in East 1.4 mph 2.6 mph 98 % 0.0 in
11:00 3.0 °F 3.0 °F 1008.0 in Calm   2.6 mph 98 % 0.0 in
11:01 3.0 °F 3.0 °F 1008.0 in Calm   3.5 mph 98 % 0.0 in
11:03 3.0 °F 3.0 °F 1008.0 in Calm   3.5 mph 98 % 0.0 in
11:05 3.1 °F 3.0 °F 1008.0 in Calm   3.5 mph 98 % 0.0 in
11:06 3.1 °F 3.0 °F 1008.0 in Calm   3.5 mph 98 % 0.0 in
11:08 3.1 °F 3.0 °F 1008.0 in ESE 2.6 mph 3.5 mph 98 % 0.0 in
11:09 3.2 °F 3.0 °F 1008.0 in Calm   3.5 mph 98 % 0.0 in
11:11 3.2 °F 3.0 °F 1008.0 in Calm   3.5 mph 98 % 0.0 in
11:13 3.3 °F 3.0 °F 1008.0 in Calm   3.2 mph 98 % 0.0 in
11:15 3.3 °F 3.0 °F 1008.0 in Calm   3.2 mph 98 % 0.0 in
11:17 3.3 °F 3.0 °F 1008.0 in Calm   3.2 mph 98 % 0.0 in
11:19 3.4 °F 3.0 °F 1008.0 in Calm     98 % 0.0 in
11:21 3.5 °F 4.0 °F 1008.0 in Calm     98 % 0.0 in
11:22 3.5 °F 4.0 °F 1008.0 in Calm     98 % 0.0 in
11:23 3.5 °F 4.0 °F 1008.0 in Calm     98 % 0.0 in
11:26 3.6 °F 4.0 °F 1008.0 in Calm     98 % 0.0 in
11:27 3.6 °F 4.0 °F 1008.0 in Calm     98 % 0.0 in
11:28 3.6 °F 4.0 °F 1008.0 in Calm     98 % 0.0 in
11:30 3.7 °F 4.0 °F 1008.0 in Calm     98 % 0.0 in
11:32 3.7 °F 4.0 °F 1008.0 in Calm     98 % 0.0 in
11:33 3.7 °F 4.0 °F 1008.0 in Calm     98 % 0.0 in
11:37 3.8 °F 4.0 °F 1008.0 in Calm     98 % 0.0 in
11:38 3.8 °F 4.0 °F 1008.0 in Calm     98 % 0.0 in
11:39 3.8 °F 4.0 °F 1008.0 in Calm     98 % 0.0 in
11:41 3.9 °F 4.0 °F 1008.0 in Calm     98 % 0.0 in
11:42 3.9 °F 4.0 °F 1008.0 in Calm     98 % 0.0 in
11:43 3.9 °F 4.0 °F 1008.0 in Calm     98 % 0.0 in
11:44 3.9 °F 4.0 °F 1008.0 in Calm     98 % 0.0 in
11:45 3.9 °F 4.0 °F 1008.0 in Calm     98 % 0.0 in
11:46 4.0 °F 4.0 °F 1008.0 in Calm     98 % 0.0 in
11:47 4.0 °F 4.0 °F 1008.0 in Calm     98 % 0.0 in
11:48 4.0 °F 4.0 °F 1008.0 in Calm     98 % 0.0 in
11:49 4.0 °F 4.0 °F 1008.0 in Calm     98 % 0.0 in
11:50 4.0 °F 4.0 °F 1008.0 in Calm     98 % 0.0 in
11:52 4.1 °F 4.0 °F 1008.0 in Calm     98 % 0.0 in
11:53 4.1 °F 4.0 °F 1008.0 in SSE 4.0 mph 6.4 mph 98 % 0.0 in
11:54 4.1 °F 4.0 °F 1008.0 in Calm   6.4 mph 98 % 0.0 in
11:55 4.1 °F 4.0 °F 1008.0 in Calm   6.4 mph 98 % 0.0 in
11:56 4.1 °F 4.0 °F 1008.0 in Calm   6.4 mph 98 % 0.0 in
11:58 4.1 °F 4.0 °F 1008.0 in SSE 5.8 mph 9.7 mph 98 % 0.0 in
11:59 4.1 °F 4.0 °F 1008.0 in Calm   9.7 mph 98 % 0.0 in
12:00 4.2 °F 4.0 °F 1008.0 in South 9.3 mph 9.7 mph 98 % 0.0 in
12:04 4.2 °F 4.0 °F 1008.0 in SSE 9.3 mph 10.5 mph 98 % 0.0 in
12:05 4.3 °F 4.0 °F 1008.0 in SSW 5.8 mph 10.5 mph 98 % 0.0 in
12:06 4.3 °F 4.0 °F 1008.0 in South 1.8 mph 10.5 mph 98 % 0.0 in
12:09 4.3 °F 4.0 °F 1008.0 in SSE 1.8 mph 10.5 mph 98 % 0.0 in
12:10 4.3 °F 4.0 °F 1008.0 in SSE 6.9 mph 10.5 mph 98 % 0.0 in
12:12 4.3 °F 4.0 °F 1008.0 in SSE 9.3 mph 12.6 mph 98 % 0.0 in
12:14 4.3 °F 4.0 °F 1008.0 in Calm   12.6 mph 98 % 0.0 in
12:15 4.3 °F 4.0 °F 1008.0 in SSE 13.0 mph 13.0 mph 98 % 0.0 in
12:16 4.4 °F 4.0 °F 1008.0 in South 9.0 mph 13.0 mph 98 % 0.0 in
12:17 4.4 °F 4.0 °F 1008.0 in Calm   13.0 mph 98 % 0.0 in
12:18 4.4 °F 4.0 °F 1008.0 in Calm   13.0 mph 98 % 0.0 in
12:19 4.4 °F 4.0 °F 1008.0 in Calm   13.0 mph 98 % 0.0 in
12:22 4.4 °F 4.0 °F 1008.0 in Calm   13.0 mph 98 % 0.0 in
12:23 4.4 °F 4.0 °F 1008.0 in South 4.7 mph 13.0 mph 98 % 0.0 in
12:26 4.4 °F 4.0 °F 1007.0 in SSE 6.1 mph 13.0 mph 98 % 0.0 in
12:28 4.4 °F 4.0 °F 1007.0 in SSE 3.2 mph 13.0 mph 98 % 0.0 in
12:29 4.4 °F 4.0 °F 1007.0 in SSE 5.8 mph 13.0 mph 98 % 0.0 in
12:30 4.4 °F 4.0 °F 1007.0 in Calm   13.0 mph 98 % 0.0 in
12:31 4.4 °F 4.0 °F 1007.0 in South 8.7 mph 13.0 mph 98 % 0.0 in
12:32 4.5 °F 5.0 °F 1007.0 in SSW 4.7 mph 13.0 mph 98 % 0.0 in
12:33 4.5 °F 5.0 °F 1007.0 in SSE 4.3 mph 13.0 mph 98 % 0.0 in
12:34 4.5 °F 5.0 °F 1007.0 in SSE 9.0 mph 13.0 mph 98 % 0.0 in
12:35 4.5 °F 5.0 °F 1007.0 in SSE 10.8 mph 11.1 mph 98 % 0.0 in
12:36 4.5 °F 5.0 °F 1007.0 in South 2.6 mph 11.9 mph 98 % 0.0 in
12:37 4.5 °F 5.0 °F 1007.0 in South 7.9 mph 11.9 mph 98 % 0.0 in
12:38 4.5 °F 5.0 °F 1007.0 in South 7.9 mph 11.9 mph 98 % 0.0 in
12:41 4.6 °F 5.0 °F 1007.0 in Calm   11.9 mph 98 % 0.0 in
12:44 4.6 °F 5.0 °F 1007.0 in Calm   11.9 mph 98 % 0.0 in
12:46 4.7 °F 5.0 °F 1007.0 in South 7.6 mph 9.3 mph 98 % 0.0 in
12:47 4.7 °F 5.0 °F 1007.0 in SSW 6.4 mph 9.3 mph 98 % 0.0 in
12:50 4.7 °F 5.0 °F 1007.0 in South 5.0 mph 9.3 mph 98 % 0.0 in
12:51 4.7 °F 5.0 °F 1007.0 in South 6.9 mph 9.3 mph 98 % 0.0 in
12:52 4.7 °F 5.0 °F 1007.0 in South 4.3 mph 10.1 mph 98 % 0.0 in
12:54 4.8 °F 5.0 °F 1007.0 in South 7.6 mph 10.1 mph 98 % 0.0 in
12:55 4.8 °F 5.0 °F 1007.0 in SSW 6.4 mph 10.1 mph 98 % 0.0 in
12:57 4.8 °F 5.0 °F 1007.0 in SSE 4.7 mph 10.1 mph 98 % 0.0 in
12:58 4.8 °F 5.0 °F 1007.0 in South 6.9 mph 10.1 mph 98 % 0.0 in
12:59 4.8 °F 5.0 °F 1007.0 in South 9.3 mph 10.1 mph 98 % 0.0 in
13:00 4.8 °F 5.0 °F 1007.0 in Calm   10.1 mph 98 % 0.0 in
13:01 4.8 °F 5.0 °F 1007.0 in Calm   10.1 mph 98 % 0.0 in
13:03 4.8 °F 5.0 °F 1007.0 in South 6.1 mph 10.1 mph 98 % 0.0 in
13:04 4.8 °F 5.0 °F 1007.0 in SSE 9.0 mph 11.6 mph 98 % 0.0 in
13:05 4.8 °F 5.0 °F 1007.0 in Calm   11.6 mph 98 % 0.0 in
13:06 4.8 °F 5.0 °F 1007.0 in South 12.2 mph 12.2 mph 98 % 0.0 in
13:07 4.8 °F 5.0 °F 1007.0 in South 5.8 mph 12.2 mph 98 % 0.0 in
13:09 4.8 °F 5.0 °F 1007.0 in South 6.1 mph 12.2 mph 98 % 0.0 in
13:10 4.8 °F 5.0 °F 1007.0 in South 12.2 mph 12.2 mph 98 % 0.0 in
13:11 4.8 °F 5.0 °F 1007.0 in SSW 10.5 mph 12.2 mph 98 % 0.0 in
13:12 4.8 °F 5.0 °F 1007.0 in SSW 9.0 mph 12.2 mph 98 % 0.0 in
13:15 4.8 °F 5.0 °F 1007.0 in SSW 5.8 mph 12.2 mph 98 % 0.0 in
13:16 4.8 °F 5.0 °F 1007.0 in SSW 6.4 mph 12.2 mph 98 % 0.0 in
13:17 4.8 °F 5.0 °F 1007.0 in SSW 6.4 mph 12.2 mph 98 % 0.0 in
13:18 4.8 °F 5.0 °F 1007.0 in SSW 6.4 mph 12.2 mph 98 % 0.0 in
13:19 4.8 °F 5.0 °F 1007.0 in SSW 9.3 mph 12.2 mph 98 % 0.0 in
13:22 4.9 °F 5.0 °F 1007.0 in SSW 6.1 mph 10.5 mph 98 % 0.0 in
13:23 4.9 °F 5.0 °F 1007.0 in SSW 7.9 mph 11.1 mph 98 % 0.0 in
13:24 4.9 °F 5.0 °F 1007.0 in SSE 5.8 mph 11.1 mph 98 % 0.0 in
13:25 4.9 °F 5.0 °F 1007.0 in SSW 4.7 mph 11.1 mph 98 % 0.0 in
13:26 4.9 °F 5.0 °F 1007.0 in South 6.9 mph 12.6 mph 98 % 0.0 in
13:28 4.9 °F 5.0 °F 1007.0 in SSE 5.8 mph 12.6 mph 98 % 0.0 in
13:29 4.9 °F 5.0 °F 1007.0 in South 8.7 mph 12.6 mph 98 % 0.0 in
13:30 4.9 °F 5.0 °F 1007.0 in South 7.9 mph 12.6 mph 98 % 0.0 in
13:31 4.9 °F 5.0 °F 1007.0 in South 9.7 mph 12.6 mph 98 % 0.0 in
13:32 4.9 °F 5.0 °F 1007.0 in South 9.7 mph 12.6 mph 98 % 0.0 in
13:33 5.0 °F 5.0 °F 1007.0 in South 9.7 mph 12.6 mph 98 % 0.0 in
13:39 5.0 °F 5.0 °F 1007.0 in SSE 4.3 mph 10.8 mph 98 % 0.0 in
13:40 5.0 °F 5.0 °F 1007.0 in South 4.3 mph 10.8 mph 98 % 0.0 in
13:43 5.0 °F 5.0 °F 1007.0 in South 6.1 mph 10.1 mph 98 % 0.0 in
13:46 5.1 °F 5.0 °F 1007.0 in South 2.6 mph 10.1 mph 98 % 0.0 in
13:47 5.1 °F 5.0 °F 1007.0 in South 4.7 mph 9.0 mph 98 % 0.0 in
13:48 5.1 °F 5.0 °F 1007.0 in SSE 5.8 mph 9.0 mph 98 % 0.0 in
13:51 5.1 °F 5.0 °F 1007.0 in SSW 4.7 mph 8.7 mph 98 % 0.0 in
13:53 5.2 °F 5.0 °F 1007.0 in SSE 5.0 mph 8.7 mph 98 % 0.0 in
13:54 5.2 °F 5.0 °F 1007.0 in South 6.1 mph 8.7 mph 98 % 0.0 in
13:55 5.2 °F 5.0 °F 1007.0 in Calm   8.7 mph 98 % 0.0 in
13:57 5.2 °F 5.0 °F 1007.0 in South 6.1 mph 7.9 mph 98 % 0.0 in
13:58 5.2 °F 5.0 °F 1007.0 in Calm   7.9 mph 98 % 0.0 in
14:00 5.3 °F 6.0 °F 1007.0 in Calm   6.1 mph 98 % 0.0 in
14:01 5.3 °F 6.0 °F 1007.0 in South 2.6 mph 6.1 mph 98 % 0.0 in
14:03 5.3 °F 6.0 °F 1007.0 in South 6.4 mph 9.0 mph 98 % 0.0 in
14:05 5.3 °F 6.0 °F 1007.0 in SSE 8.7 mph 13.0 mph 98 % 0.0 in
14:06 5.3 °F 6.0 °F 1007.0 in South 7.9 mph 13.0 mph 98 % 0.0 in
14:07 5.3 °F 6.0 °F 1007.0 in SSW 6.1 mph 13.0 mph 98 % 0.0 in
14:08 5.3 °F 6.0 °F 1007.0 in Calm   13.0 mph 98 % 0.0 in
14:09 5.3 °F 6.0 °F 1007.0 in Calm   13.0 mph 98 % 0.0 in
14:10 5.3 °F 6.0 °F 1007.0 in SSW 5.5 mph 13.0 mph 98 % 0.0 in
14:11 5.3 °F 6.0 °F 1007.0 in South 4.7 mph 13.0 mph 98 % 0.0 in
14:12 5.3 °F 6.0 °F 1007.0 in SSW 7.9 mph 13.0 mph 98 % 0.0 in
14:15 5.3 °F 6.0 °F 1007.0 in South 4.3 mph 10.5 mph 98 % 0.0 in
14:16 5.3 °F 6.0 °F 1007.0 in South 3.2 mph 10.5 mph 98 % 0.0 in
14:17 5.4 °F 6.0 °F 1007.0 in South 3.2 mph 10.5 mph 98 % 0.0 in
14:18 5.4 °F 6.0 °F 1007.0 in SSW 4.7 mph 10.5 mph 98 % 0.0 in
14:20 5.4 °F 6.0 °F 1007.0 in SW 3.5 mph 10.5 mph 98 % 0.0 in
14:22 5.4 °F 6.0 °F 1007.0 in SSW 6.4 mph 10.5 mph 98 % 0.0 in
14:24 5.5 °F 6.0 °F 1007.0 in South 6.4 mph 9.3 mph 98 % 0.0 in
14:25 5.5 °F 6.0 °F 1006.0 in SSW 6.1 mph 10.1 mph 98 % 0.0 in
14:26 5.5 °F 6.0 °F 1006.0 in South 9.3 mph 10.1 mph 98 % 0.0 in
14:27 5.6 °F 6.0 °F 1006.0 in Calm   10.1 mph 98 % 0.0 in
14:30 5.6 °F 6.0 °F 1006.0 in South 10.1 mph 10.1 mph 98 % 0.0 in
14:31 5.6 °F 6.0 °F 1006.0 in South 7.9 mph 10.1 mph 98 % 0.0 in
14:32 5.6 °F 6.0 °F 1006.0 in SSW 6.9 mph 10.1 mph 98 % 0.0 in
14:33 5.6 °F 6.0 °F 1006.0 in SSW 6.4 mph 10.1 mph 98 % 0.0 in
14:34 5.6 °F 6.0 °F 1006.0 in SSW 6.1 mph 10.1 mph 98 % 0.0 in
14:35 5.6 °F 6.0 °F 1006.0 in South 9.3 mph 10.1 mph 98 % 0.0 in
14:36 5.6 °F 6.0 °F 1006.0 in South 9.3 mph 10.1 mph 98 % 0.0 in
14:37 5.6 °F 6.0 °F 1006.0 in South 9.7 mph 12.6 mph 98 % 0.0 in
14:40 5.6 °F 6.0 °F 1006.0 in South 8.7 mph 14.3 mph 98 % 0.0 in
14:42 5.6 °F 6.0 °F 1006.0 in SSW 9.7 mph 16.6 mph 98 % 0.0 in
14:44 5.6 °F 6.0 °F 1006.0 in SSE 6.1 mph 16.6 mph 98 % 0.0 in
14:45 5.6 °F 6.0 °F 1006.0 in South 6.4 mph 16.6 mph 98 % 0.0 in
14:46 5.6 °F 6.0 °F 1006.0 in South 5.5 mph 16.6 mph 98 % 0.0 in
14:48 5.6 °F 6.0 °F 1006.0 in SSE 6.9 mph 16.6 mph 98 % 0.0 in
14:50 5.6 °F 6.0 °F 1006.0 in SSE 5.8 mph 16.6 mph 98 % 0.0 in
14:52 5.6 °F 6.0 °F 1006.0 in SSE 5.0 mph 11.9 mph 98 % 0.0 in
14:54 5.6 °F 6.0 °F 1006.0 in SSE 1.8 mph 11.9 mph 98 % 0.0 in
14:56 5.6 °F 6.0 °F 1006.0 in SSW 3.2 mph 10.5 mph 98 % 0.0 in
14:57 5.6 °F 6.0 °F 1006.0 in SSE 9.0 mph 10.5 mph 98 % 0.0 in
14:59 5.6 °F 6.0 °F 1006.0 in Calm   10.5 mph 98 % 0.0 in
15:01 5.6 °F 6.0 °F 1006.0 in South 9.7 mph 10.5 mph 98 % 0.0 in
15:03 5.6 °F 6.0 °F 1006.0 in Calm   10.5 mph 98 % 0.0 in
15:04 5.6 °F 6.0 °F 1006.0 in South 6.4 mph 10.5 mph 98 % 0.0 in
15:05 5.7 °F 6.0 °F 1006.0 in South 13.0 mph 13.0 mph 98 % 0.0 in
15:07 5.7 °F 6.0 °F 1006.0 in South 6.4 mph 15.8 mph 98 % 0.0 in
15:09 5.7 °F 6.0 °F 1006.0 in SSW 9.3 mph 15.8 mph 98 % 0.0 in
15:10 5.7 °F 6.0 °F 1006.0 in SSE 3.2 mph 15.8 mph 98 % 0.0 in
15:11 5.7 °F 6.0 °F 1006.0 in SSW 9.3 mph 15.8 mph 98 % 0.0 in
15:12 5.7 °F 6.0 °F 1006.0 in SSW 5.5 mph 15.8 mph 98 % 0.0 in
15:13 5.7 °F 6.0 °F 1006.0 in South 6.1 mph 15.8 mph 98 % 0.0 in
15:14 5.7 °F 6.0 °F 1006.0 in South 4.0 mph 15.8 mph 98 % 0.0 in
15:15 5.7 °F 6.0 °F 1006.0 in South 11.6 mph 15.8 mph 98 % 0.0 in
15:16 5.7 °F 6.0 °F 1006.0 in South 11.6 mph 15.8 mph 98 % 0.0 in
15:17 5.7 °F 6.0 °F 1006.0 in SSW 6.4 mph 15.8 mph 98 % 0.0 in
15:18 5.7 °F 6.0 °F 1006.0 in SSW 9.0 mph 13.7 mph 98 % 0.0 in
15:19 5.7 °F 6.0 °F 1006.0 in SSW 10.5 mph 13.7 mph 98 % 0.0 in
15:20 5.7 °F 6.0 °F 1006.0 in South 5.8 mph 13.7 mph 98 % 0.0 in
15:22 5.7 °F 6.0 °F 1006.0 in South 14.3 mph 14.3 mph 98 % 0.0 in
15:23 5.7 °F 6.0 °F 1006.0 in SSW 10.5 mph 14.3 mph 98 % 0.0 in
15:24 5.7 °F 6.0 °F 1006.0 in SSW 5.5 mph 14.3 mph 98 % 0.0 in
15:25 5.7 °F 6.0 °F 1006.0 in SSW 10.1 mph 14.3 mph 98 % 0.0 in
15:26 5.7 °F 6.0 °F 1006.0 in SW 5.5 mph 14.3 mph 98 % 0.0 in
15:27 5.7 °F 6.0 °F 1006.0 in SSW 4.7 mph 14.3 mph 98 % 0.0 in
15:30 5.8 °F 6.0 °F 1006.0 in Calm   14.3 mph 98 % 0.0 in
15:32 5.8 °F 6.0 °F 1006.0 in WSW 9.0 mph 14.3 mph 98 % 0.0 in
15:33 5.8 °F 6.0 °F 1006.0 in SSW 8.7 mph 13.0 mph 98 % 0.0 in
15:34 5.8 °F 6.0 °F 1006.0 in SW 9.0 mph 13.0 mph 98 % 0.0 in
15:36 5.8 °F 6.0 °F 1006.0 in South 9.3 mph 13.0 mph 98 % 0.0 in
15:38 5.8 °F 6.0 °F 1006.0 in SSW 6.4 mph 17.2 mph 98 % 0.0 in
15:39 5.8 °F 6.0 °F 1006.0 in SW 10.1 mph 17.2 mph 98 % 0.0 in
15:40 5.8 °F 6.0 °F 1007.0 in SW 9.0 mph 17.2 mph 98 % 0.0 in
15:43 5.8 °F 6.0 °F 1007.0 in SSW 7.2 mph 17.2 mph 98 % 0.0 in
15:44 5.8 °F 6.0 °F 1007.0 in SW 6.1 mph 17.2 mph 98 % 0.0 in
15:46 5.8 °F 6.0 °F 1007.0 in SW 11.9 mph 17.2 mph 98 % 0.0 in
15:47 5.8 °F 6.0 °F 1007.0 in SSW 11.6 mph 16.6 mph 98 % 0.0 in
15:48 5.8 °F 6.0 °F 1007.0 in SSW 10.1 mph 16.6 mph 98 % 0.0 in
15:49 5.8 °F 6.0 °F 1007.0 in SSW 13.7 mph 16.6 mph 98 % 0.0 in
15:50 5.8 °F 6.0 °F 1007.0 in SW 9.3 mph 16.6 mph 98 % 0.0 in
15:51 5.8 °F 6.0 °F 1007.0 in SSW 10.1 mph 16.6 mph 98 % 0.0 in
15:55 5.8 °F 6.0 °F 1007.0 in SW 14.0 mph 16.6 mph 98 % 0.0 in
15:57 5.8 °F 6.0 °F 1006.0 in SW 8.7 mph 14.0 mph 98 % 0.0 in
15:58 5.8 °F 6.0 °F 1006.0 in SSW 11.1 mph 14.0 mph 98 % 0.0 in
15:59 5.8 °F 6.0 °F 1006.0 in WSW 9.7 mph 14.0 mph 98 % 0.0 in
16:04 5.8 °F 6.0 °F 1006.0 in SSW 9.7 mph 17.2 mph 98 % 0.0 in
16:06 5.8 °F 6.0 °F 1006.0 in SSW 11.6 mph 17.2 mph 98 % 0.0 in
16:08 5.8 °F 6.0 °F 1006.0 in SSW 9.0 mph 17.2 mph 98 % 0.0 in
16:09 5.8 °F 6.0 °F 1006.0 in SSW 16.6 mph 17.2 mph 98 % 0.0 in
16:10 5.8 °F 6.0 °F 1006.0 in SW 9.3 mph 17.2 mph 98 % 0.0 in
16:11 5.8 °F 6.0 °F 1007.0 in South 8.7 mph 16.6 mph 98 % 0.0 in
16:12 5.8 °F 6.0 °F 1007.0 in SW 9.3 mph 16.6 mph 98 % 0.0 in
16:13 5.8 °F 6.0 °F 1007.0 in South 9.3 mph 16.6 mph 98 % 0.0 in
16:14 5.8 °F 6.0 °F 1007.0 in SW 14.0 mph 16.6 mph 98 % 0.0 in
16:15 5.8 °F 6.0 °F 1007.0 in SSW 10.5 mph 16.6 mph 98 % 0.0 in
16:16 5.8 °F 6.0 °F 1007.0 in SW 10.5 mph 16.6 mph 98 % 0.0 in
16:17 5.8 °F 6.0 °F 1007.0 in SW 5.0 mph 16.6 mph 98 % 0.0 in
16:20 5.8 °F 6.0 °F 1007.0 in SW 8.7 mph 16.3 mph 98 % 0.0 in
16:25 5.8 °F 6.0 °F 1007.0 in SSW 8.7 mph 15.4 mph 98 % 0.0 in
16:26 5.8 °F 6.0 °F 1007.0 in WSW 7.9 mph 15.4 mph 98 % 0.0 in
16:27 5.8 °F 6.0 °F 1007.0 in SW 7.6 mph 15.4 mph 98 % 0.0 in
16:28 5.8 °F 6.0 °F 1007.0 in SW 10.5 mph 15.4 mph 98 % 0.0 in
16:29 5.8 °F 6.0 °F 1007.0 in SW 9.0 mph 15.4 mph 98 % 0.0 in
16:30 5.8 °F 6.0 °F 1007.0 in SSW 9.0 mph 13.0 mph 98 % 0.0 in
16:32 5.7 °F 6.0 °F 1007.0 in SSW 8.7 mph 12.6 mph 98 % 0.0 in
16:33 5.7 °F 6.0 °F 1007.0 in SSW 10.5 mph 12.6 mph 98 % 0.0 in
16:34 5.7 °F 6.0 °F 1007.0 in SW 11.6 mph 12.6 mph 98 % 0.0 in
16:35 5.7 °F 6.0 °F 1007.0 in SW 11.1 mph 12.6 mph 98 % 0.0 in
16:36 5.7 °F 6.0 °F 1007.0 in SW 9.7 mph 12.6 mph 98 % 0.0 in
16:37 5.7 °F 6.0 °F 1007.0 in SSW 10.1 mph 14.0 mph 98 % 0.0 in
16:39 5.7 °F 6.0 °F 1007.0 in SSW 6.4 mph 14.0 mph 98 % 0.0 in
16:40 5.7 °F 6.0 °F 1007.0 in SW 9.7 mph 14.0 mph 98 % 0.0 in
16:41 5.7 °F 6.0 °F 1007.0 in SSW 9.0 mph 14.0 mph 98 % 0.0 in
16:42 5.7 °F 6.0 °F 1007.0 in SW 6.4 mph 14.0 mph 98 % 0.0 in
16:43 5.7 °F 6.0 °F 1007.0 in WSW 6.9 mph 14.0 mph 98 % 0.0 in
16:44 5.7 °F 6.0 °F 1007.0 in Calm   14.0 mph 98 % 0.0 in
16:45 5.7 °F 6.0 °F 1007.0 in WSW 7.2 mph 14.0 mph 98 % 0.0 in
16:46 5.7 °F 6.0 °F 1007.0 in SSW 7.9 mph 14.0 mph 98 % 0.0 in
16:48 5.7 °F 6.0 °F 1007.0 in SW 8.7 mph 10.1 mph 98 % 0.0 in
16:49 5.7 °F 6.0 °F 1007.0 in South 7.9 mph 10.1 mph 98 % 0.0 in
16:50 5.7 °F 6.0 °F 1007.0 in SSW 6.1 mph 10.1 mph 98 % 0.0 in
16:51 5.7 °F 6.0 °F 1007.0 in SSW 5.8 mph 9.7 mph 98 % 0.0 in
16:53 5.7 °F 6.0 °F 1007.0 in SSW 5.8 mph 9.7 mph 98 % 0.0 in
16:58 5.7 °F 6.0 °F 1007.0 in SSW 9.0 mph 9.7 mph 98 % 0.0 in
17:00 5.6 °F 6.0 °F 1007.0 in Calm   10.5 mph 98 % 0.0 in
17:01 5.6 °F 6.0 °F 1007.0 in SW 9.3 mph 10.5 mph 98 % 0.0 in
17:02 5.6 °F 6.0 °F 1007.0 in SW 6.1 mph 10.5 mph 98 % 0.0 in
17:03 5.6 °F 6.0 °F 1007.0 in WSW 9.3 mph 10.5 mph 98 % 0.0 in
17:04 5.6 °F 6.0 °F 1007.0 in SSW 8.7 mph 10.5 mph 98 % 0.0 in
17:06 5.6 °F 6.0 °F 1007.0 in WSW 9.0 mph 12.6 mph 98 % 0.0 in
17:09 5.6 °F 6.0 °F 1007.0 in SSW 13.0 mph 14.0 mph 98 % 0.0 in
17:10 5.6 °F 6.0 °F 1007.0 in SSW 9.7 mph 14.0 mph 98 % 0.0 in
17:13 5.6 °F 6.0 °F 1007.0 in SW 7.2 mph 14.0 mph 98 % 0.0 in
17:14 5.6 °F 6.0 °F 1007.0 in SW 7.9 mph 14.0 mph 98 % 0.0 in
17:17 5.6 °F 6.0 °F 1007.0 in WSW 10.1 mph 14.0 mph 98 % 0.0 in
17:18 5.6 °F 6.0 °F 1007.0 in WSW 11.9 mph 13.0 mph 98 % 0.0 in
17:19 5.6 °F 6.0 °F 1007.0 in SSW 9.7 mph 13.0 mph 98 % 0.0 in
17:21 5.6 °F 6.0 °F 1007.0 in SW 10.5 mph 15.4 mph 98 % 0.0 in
17:22 5.6 °F 6.0 °F 1007.0 in SW 6.9 mph 15.4 mph 98 % 0.0 in
17:23 5.6 °F 6.0 °F 1007.0 in SW 6.1 mph 15.4 mph 98 % 0.0 in
17:24 5.6 °F 6.0 °F 1007.0 in SSW 7.6 mph 15.4 mph 98 % 0.0 in
17:26 5.6 °F 6.0 °F 1007.0 in SSW 8.7 mph 15.4 mph 98 % 0.0 in
17:27 5.6 °F 6.0 °F 1007.0 in SW 6.9 mph 15.4 mph 98 % 0.0 in
17:28 5.6 °F 6.0 °F 1007.0 in SSW 6.4 mph 15.4 mph 98 % 0.0 in
17:30 5.6 °F 6.0 °F 1007.0 in SSW 5.8 mph 14.0 mph 98 % 0.0 in
17:31 5.6 °F 6.0 °F 1007.0 in WSW 6.9 mph 13.7 mph 98 % 0.0 in
17:32 5.6 °F 6.0 °F 1007.0 in SW 10.1 mph 11.9 mph 98 % 0.0 in
17:33 5.6 °F 6.0 °F 1007.0 in SW 8.7 mph 11.6 mph 98 % 0.0 in
17:34 5.6 °F 6.0 °F 1007.0 in South 9.7 mph 11.6 mph 98 % 0.0 in
17:35 5.5 °F 6.0 °F 1007.0 in Calm   11.6 mph 98 % 0.0 in
17:38 5.5 °F 6.0 °F 1007.0 in Calm   10.1 mph 98 % 0.0 in
17:39 5.5 °F 6.0 °F 1007.0 in SW 9.0 mph 10.1 mph 98 % 0.0 in
17:41 5.5 °F 6.0 °F 1007.0 in SSW 7.9 mph 10.1 mph 98 % 0.0 in
17:42 5.5 °F 6.0 °F 1007.0 in SSW 9.3 mph 10.1 mph 98 % 0.0 in
17:43 5.5 °F 6.0 °F 1007.0 in Calm   10.1 mph 98 % 0.0 in
17:44 5.5 °F 6.0 °F 1007.0 in Calm   10.1 mph 98 % 0.0 in
17:45 5.5 °F 6.0 °F 1007.0 in Calm   10.1 mph 98 % 0.0 in
17:46 5.5 °F 6.0 °F 1007.0 in Calm   10.1 mph 98 % 0.0 in
17:48 5.5 °F 6.0 °F 1007.0 in Calm   9.7 mph 98 % 0.0 in
17:51 5.5 °F 6.0 °F 1007.0 in Calm   9.3 mph 98 % 0.0 in
17:52 5.4 °F 6.0 °F 1007.0 in SW 6.9 mph 9.0 mph 98 % 0.0 in
17:53 5.4 °F 6.0 °F 1007.0 in SSW 7.9 mph 9.0 mph 98 % 0.0 in
17:54 5.4 °F 6.0 °F 1007.0 in SW 5.8 mph 7.9 mph 98 % 0.0 in
17:58 5.4 °F 6.0 °F 1007.0 in SW 5.8 mph 9.3 mph 98 % 0.0 in
17:59 5.4 °F 6.0 °F 1007.0 in SW 5.5 mph 9.3 mph 98 % 0.0 in
18:00 5.4 °F 6.0 °F 1007.0 in SSW 6.4 mph 9.3 mph 98 % 0.0 in
18:01 5.4 °F 6.0 °F 1007.0 in SSW 5.5 mph 9.3 mph 98 % 0.0 in
18:03 5.4 °F 6.0 °F 1007.0 in Calm   9.3 mph 98 % 0.0 in
18:04 5.4 °F 6.0 °F 1007.0 in SW 5.5 mph 9.3 mph 98 % 0.0 in
18:06 5.4 °F 6.0 °F 1007.0 in SSW 4.0 mph 9.3 mph 98 % 0.0 in
18:07 5.4 °F 6.0 °F 1007.0 in Calm   7.9 mph 98 % 0.0 in
18:08 5.4 °F 6.0 °F 1007.0 in Calm   7.9 mph 98 % 0.0 in
18:09 5.4 °F 6.0 °F 1007.0 in SSW 4.3 mph 7.9 mph 98 % 0.0 in
18:10 5.4 °F 6.0 °F 1007.0 in Calm   7.9 mph 98 % 0.0 in
18:11 5.4 °F 6.0 °F 1007.0 in Calm   7.9 mph 98 % 0.0 in
18:12 5.4 °F 6.0 °F 1007.0 in SSW 2.1 mph 7.9 mph 98 % 0.0 in
18:13 5.4 °F 6.0 °F 1007.0 in South 8.7 mph 8.7 mph 98 % 0.0 in
18:14 5.4 °F 6.0 °F 1007.0 in South 6.4 mph 10.5 mph 98 % 0.0 in
18:16 5.5 °F 6.0 °F 1007.0 in SSW 5.0 mph 10.5 mph 98 % 0.0 in
18:17 5.5 °F 6.0 °F 1007.0 in SSW 4.3 mph 10.5 mph 98 % 0.0 in
18:18 5.5 °F 6.0 °F 1007.0 in SSW 4.3 mph 10.5 mph 98 % 0.0 in
18:22 5.5 °F 6.0 °F 1007.0 in SSW 5.5 mph 10.5 mph 98 % 0.0 in
18:24 5.5 °F 6.0 °F 1007.0 in SSW 6.1 mph 10.5 mph 98 % 0.0 in
18:26 5.5 °F 6.0 °F 1007.0 in South 4.7 mph 10.5 mph 98 % 0.0 in
18:27 5.5 °F 6.0 °F 1007.0 in SSW 6.1 mph 10.5 mph 98 % 0.0 in
18:28 5.5 °F 6.0 °F 1007.0 in Calm   10.5 mph 98 % 0.0 in
18:33 5.6 °F 6.0 °F 1007.0 in Calm   10.1 mph 98 % 0.0 in
18:39 5.6 °F 6.0 °F 1007.0 in Calm   10.1 mph 98 % 0.0 in
18:46 5.6 °F 6.0 °F 1007.0 in SSW 9.7 mph 10.1 mph 98 % 0.0 in
18:50 5.6 °F 6.0 °F 1007.0 in SSW 4.0 mph 10.1 mph 98 % 0.0 in
18:55 5.6 °F 6.0 °F 1007.0 in SSW 6.1 mph 10.5 mph 98 % 0.0 in
18:57 5.6 °F 6.0 °F 1007.0 in SW 5.8 mph 10.5 mph 98 % 0.0 in
18:58 5.6 °F 6.0 °F 1007.0 in SSW 6.9 mph 10.5 mph 98 % 0.0 in
18:59 5.6 °F 6.0 °F 1007.0 in SSW 5.8 mph 10.5 mph 98 % 0.0 in
19:00 5.6 °F 6.0 °F 1007.0 in SSW 4.7 mph 10.5 mph 98 % 0.0 in
19:05 5.6 °F 6.0 °F 1007.0 in Calm   10.1 mph 98 % 0.0 in
19:06 5.6 °F 6.0 °F 1007.0 in WSW 5.5 mph 9.0 mph 98 % 0.0 in
19:13 5.6 °F 6.0 °F 1007.0 in SSW 4.0 mph 10.5 mph 98 % 0.0 in
19:20 5.7 °F 6.0 °F 1007.0 in South 5.0 mph 10.1 mph 98 % 0.0 in
19:22 5.7 °F 6.0 °F 1007.0 in SW 6.4 mph 10.1 mph 98 % 0.0 in
19:24 5.7 °F 6.0 °F 1007.0 in Calm   10.1 mph 98 % 0.0 in
19:25 5.7 °F 6.0 °F 1007.0 in Calm   10.1 mph 98 % 0.0 in
19:27 5.7 °F 6.0 °F 1007.0 in Calm   10.1 mph 98 % 0.0 in
19:28 5.7 °F 6.0 °F 1007.0 in Calm   10.1 mph 98 % 0.0 in
19:34 5.7 °F 6.0 °F 1007.0 in Calm   7.9 mph 98 % 0.0 in
19:35 5.7 °F 6.0 °F 1007.0 in Calm   7.9 mph 98 % 0.0 in
19:37 5.7 °F 6.0 °F 1007.0 in Calm   9.3 mph 98 % 0.0 in
19:38 5.7 °F 6.0 °F 1007.0 in Calm   9.3 mph 98 % 0.0 in
19:41 5.7 °F 6.0 °F 1007.0 in SSW 6.1 mph 9.3 mph 98 % 0.0 in
19:46 5.7 °F 6.0 °F 1006.0 in Calm   6.9 mph 98 % 0.0 in
19:51 5.7 °F 6.0 °F 1006.0 in Calm   6.9 mph 98 % 0.0 in
19:52 5.7 °F 6.0 °F 1006.0 in Calm   6.9 mph 98 % 0.0 in
19:56 5.7 °F 6.0 °F 1007.0 in Calm   6.1 mph 98 % 0.0 in
20:02 5.7 °F 6.0 °F 1007.0 in Calm   6.4 mph 98 % 0.0 in
20:04 5.7 °F 6.0 °F 1007.0 in Calm   6.4 mph 98 % 0.0 in
20:09 5.7 °F 6.0 °F 1007.0 in South 1.4 mph 5.5 mph 98 % 0.0 in
20:14 5.7 °F 6.0 °F 1007.0 in Calm   4.0 mph 98 % 0.0 in
20:18 5.7 °F 6.0 °F 1007.0 in South 1.4 mph 3.5 mph 98 % 0.0 in
20:24 5.7 °F 6.0 °F 1007.0 in Calm   3.2 mph 98 % 0.0 in
20:29 5.7 °F 6.0 °F 1007.0 in Calm   3.2 mph 98 % 0.0 in
20:34 5.7 °F 6.0 °F 1007.0 in SSE 2.6 mph 4.3 mph 98 % 0.0 in
20:39 5.7 °F 6.0 °F 1007.0 in Calm   4.3 mph 98 % 0.0 in
20:44 5.8 °F 6.0 °F 1007.0 in Calm     98 % 0.0 in
20:56 5.8 °F 6.0 °F 1007.0 in Calm   1.4 mph 98 % 0.0 in
21:01 5.8 °F 6.0 °F 1007.0 in Calm   5.0 mph 98 % 0.0 in
21:06 5.8 °F 6.0 °F 1007.0 in Calm   5.0 mph 98 % 0.0 in
21:12 5.9 °F 6.0 °F 1007.0 in Calm   4.0 mph 98 % 0.0 in
21:18 5.9 °F 6.0 °F 1007.0 in Calm   1.4 mph 98 % 0.0 in
21:23 5.9 °F 6.0 °F 1007.0 in Calm   2.1 mph 98 % 0.0 in
21:29 6.0 °F 6.0 °F 1007.0 in Calm     98 % 0.0 in
21:33 6.0 °F 6.0 °F 1007.0 in Calm     98 % 0.0 in
21:35 6.0 °F 6.0 °F 1007.0 in Calm     98 % 0.0 in
21:37 6.0 °F 6.0 °F 1007.0 in Calm     98 % 0.0 in
21:42 6.0 °F 6.0 °F 1007.0 in Calm     98 % 0.0 in
21:43 6.0 °F 6.0 °F 1007.0 in Calm     98 % 0.0 in
21:44 6.0 °F 6.0 °F 1007.0 in Calm   3.5 mph 98 % 0.0 in
21:46 6.1 °F 6.0 °F 1007.0 in Calm   3.5 mph 98 % 0.0 in
21:50 6.1 °F 6.0 °F 1007.0 in Calm   7.6 mph 98 % 0.0 in
21:52 6.1 °F 6.0 °F 1007.0 in Calm   7.6 mph 98 % 0.0 in
21:53 6.1 °F 6.0 °F 1007.0 in SSE 3.2 mph 7.6 mph 98 % 0.0 in
21:59 6.2 °F 6.0 °F 1007.0 in Calm   7.6 mph 98 % 0.0 in
22:01 6.3 °F 6.0 °F 1007.0 in Calm   3.2 mph 98 % 0.0 in
22:02 6.3 °F 6.0 °F 1007.0 in Calm   3.2 mph 98 % 0.0 in
22:08 6.3 °F 6.0 °F 1007.0 in Calm   3.2 mph 98 % 0.0 in
22:13 6.3 °F 6.0 °F 1007.0 in South 4.0 mph 4.0 mph 98 % 0.0 in
22:20 6.4 °F 6.0 °F 1007.0 in South 3.2 mph 5.5 mph 98 % 0.0 in
22:27 6.5 °F 7.0 °F 1006.0 in Calm   5.8 mph 98 % 0.0 in
22:32 6.6 °F 7.0 °F 1006.0 in SSW 3.2 mph 4.7 mph 98 % 0.0 in
22:36 6.7 °F 7.0 °F 1006.0 in Calm   5.5 mph 98 % 0.0 in
22:44 6.8 °F 7.0 °F 1007.0 in SSE 3.2 mph 6.1 mph 98 % 0.0 in
22:47 6.8 °F 7.0 °F 1007.0 in Calm   6.1 mph 98 % 0.0 in
22:55 6.9 °F 7.0 °F 1007.0 in Calm   4.3 mph 98 % 0.0 in
22:57 6.9 °F 7.0 °F 1007.0 in Calm   3.5 mph 98 % 0.0 in
23:03 7.0 °F 7.0 °F 1007.0 in South 4.0 mph 6.1 mph 98 % 0.0 in
23:09 7.1 °F 7.0 °F 1007.0 in Calm   7.9 mph 98 % 0.0 in
23:14 7.1 °F 7.0 °F 1007.0 in South 2.1 mph 8.7 mph 98 % 0.0 in
23:17 7.1 °F 7.0 °F 1007.0 in Calm   8.7 mph 98 % 0.0 in
23:23 7.2 °F 7.0 °F 1007.0 in South 5.8 mph 9.7 mph 98 % 0.0 in
23:28 7.2 °F 7.0 °F 1006.0 in South 3.2 mph 9.7 mph 98 % 0.0 in
23:29 7.2 °F 7.0 °F 1006.0 in Calm   9.7 mph 98 % 0.0 in
23:30 7.2 °F 7.0 °F 1006.0 in Calm   9.7 mph 98 % 0.0 in
23:35 7.3 °F 7.0 °F 1006.0 in Calm   9.0 mph 98 % 0.0 in
23:38 7.3 °F 7.0 °F 1006.0 in South 2.1 mph 7.9 mph 98 % 0.0 in
23:44 7.3 °F 7.0 °F 1006.0 in SSE 5.8 mph 11.6 mph 98 % 0.0 in
23:49 7.3 °F 7.0 °F 1006.0 in SSE 5.5 mph 10.1 mph 98 % 0.0 in
23:51 7.3 °F 7.0 °F 1006.0 in Calm   10.1 mph 98 % 0.0 in
23:53 7.4 °F 7.0 °F 1006.0 in SSW 6.4 mph 10.1 mph 98 % 0.0 in
23:56 7.4 °F 7.0 °F 1006.0 in Calm   9.7 mph 98 % 0.0 in
Le Gheer Warneton
Courtoisie de Weather Underground - 5 mb

Mise a jour : 18/02/2018 06:15:11
Généré par Cumulus 1.9.4 (1099)